Hourly Weather Roundup
Issued by NWS Central Illinois

Home | Current Version | Previous Version | Text Only | Print | Product List | Glossary Off
Versions: 1 2 3 4 5 6 7 8 9 10 11 12 13 14 15 16 17 18 19 20 21 22 23 24 25 26 27 28 29 30 31 32 33 34 35 36 37 38 39 40 41 42 43 44 45 46 47 48 49 50

623
NZUS43 KILX 270510
HWRILX

Area Weather Roundup
National Weather Service Lincoln IL
1200 AM CDT TUE JUN 27 2017

NOTE:  "FAIR" indicates few or no clouds below 12,000 feet, with
       no sigificant weather and/or obstructions to visibility.


CITY           SKY/WX    TMP DP  RH WIND       PRES   REMARKS
Bloomington    NOT AVBL
Champaign      CLEAR     53  49  86 W6        30.12R
Danville       CLEAR     54  50  87 W7        30.09R
Decatur        MOCLDY    59  54  83 W3        30.13R
Effingham      CLEAR     56  55  96 CALM      30.14S
Flora          CLEAR     57  52  81 CALM      30.13R
Galesburg      CLEAR     52  52 100 CALM      30.15R
Jacksonville   MOCLDY    56  52  88 E3        30.13R
Lacon          CLEAR     51  50  95 CALM      30.12R
Lawrenceville  CLEAR     58  56  93 CALM      30.13R
Litchfield     CLEAR     55  53  93 CALM      30.12S
$$


CITY           SKY/WX    TMP DP  RH WIND       PRES   REMARKS
Lincoln        MOCLDY    58  56  93 CALM      30.13R
Macomb         CLEAR     53  52  94 CALM      30.16R
Mattoon        MOCLDY    59  52  77 CALM      30.12R
Mt Carmel AP   CLEAR     54  53  94 CALM      30.13R
Olney-Noble AP CLEAR     56  56 100 CALM      30.13R
Paris AP       CLEAR     53  50  90 W5        30.13R
Peoria         CLEAR     55  53  93 CALM      30.13R
Pontiac        PTCLDY    57  52  84 CALM      30.13S
Rantoul        CLEAR     55  53  92 NW7       30.12R
Robinson       CLEAR     52  50  95 CALM      30.14R
Springfield    PTCLDY    58  56  93 S6        30.14R
Taylorville    PTCLDY    53  52  94 CALM      30.14S
$$

...REGIONAL REPORTS...


CITY           SKY/WX    TMP DP  RH WIND       PRES   REMARKS
Chicago O`Hare CLEAR     59  44  57 NW8       30.09S
Kankakee       CLEAR     54  50  87 CALM      30.12R
Moline         CLEAR     55  47  74 CALM      30.13R
Mount Sterling MOCLDY    58  57  97 CALM      30.13R
Mount Vernon   CLOUDY    56  55  97 CALM      30.13R
Pittsfield     CLOUDY    59  56  89 N3        30.14R
Quincy         PTCLDY    59  56  89 CALM      30.13R
Rockford       CLEAR     55  48  77 CALM      30.12S
$$


CITY           SKY/WX    TMP DP  RH WIND       PRES   REMARKS
Burlington     CLEAR     57  49  74 NE6       30.13R
Cedar Rapids   CLEAR     53  47  79 CALM      30.13S
Des Moines     PTCLDY    62  43  49 NE5       30.15R
Kirksville     CLEAR     56  55  97 CALM      30.15R
Ottumwa        CLEAR     58  45  62 NE5       30.14R
St Louis       PTCLDY    63  55  75 W5        30.13R
$$


CITY           SKY/WX    TMP DP  RH WIND       PRES   REMARKS
Terre Haute    PTCLDY    56  51  84 W3        30.12R
Evansville     CLOUDY    62  55  77 CALM      30.13R
Indianapolis   PTCLDY    55  50  83 W7        30.10R
Lafayette      CLEAR     51  51 100 CALM      30.10R
Madison        CLEAR     53  47  79 CALM      30.09S
Milwaukee      PTCLDY    59  49  69 W3        30.08S
$$






USA.gov is the U.S. government's official web portal to all federal, state and local government web resources and services.